When you browse on this site, cookies collect data to enhance your experience and personalize the content and advertising you see.
Visit our Privacy Policy to learn more. By continuing to use the site, you agree to this use of cookies and data.
  • In Hungary
  • List of Countries
  • For 7 days
  • Water Temperature
  • Satellite Maps
  • Weather Map
  • News
  • Weather Widgets
  • user-avatar
    Login

    Hourly Weather Port Said

    Today, 18 January, Friday

    Time Temperature Precipitation Wind Pressure Humidity
    00:00 +10°C° 0 mm 4 mps 767 mmHg 80%
    01:00 +10°C° 0 mm 4 mps 767 mmHg 80%
    02:00 +10°C° 0 mm 4 mps 767 mmHg 79%
    03:00 +10°C° 0 mm 4 mps 767 mmHg 79%
    04:00 +10°C° 0 mm 4 mps 767 mmHg 79%
    05:00 +10°C° 0 mm 4 mps 767 mmHg 80%
    06:00 +10°C° 0 mm 4 mps 767 mmHg 78%
    07:00 +10°C° 0 mm 4 mps 767 mmHg 76%
    08:00 +10°C° 0 mm 4 mps 767 mmHg 74%
    09:00 +12°C° 0 mm 3 mps 767 mmHg 66%
    10:00 +14°C° 0 mm 3 mps 767 mmHg 57%
    11:00 +17°C° 0 mm 2 mps 767 mmHg 49%
    12:00 +17°C° 0 mm 2 mps 767 mmHg 47%
    13:00 +18°C° 0 mm 2 mps 766 mmHg 45%
    14:00 +18°C° 0 mm 2 mps 766 mmHg 42%
    15:00 +18°C° 0 mm 2 mps 766 mmHg 45%
    16:00 +18°C° 0 mm 3 mps 766 mmHg 48%
    17:00 +17°C° 0 mm 3 mps 766 mmHg 51%
    18:00 +17°C° 0 mm 3 mps 766 mmHg 55%
    19:00 +16°C° 0 mm 3 mps 766 mmHg 60%
    20:00 +14°C° 0 mm 3 mps 767 mmHg 64%
    21:00 +15°C° 0 mm 2 mps 767 mmHg 66%
    22:00 +14°C° 0 mm 2 mps 767 mmHg 68%
    23:00 +14°C° 0 mm 2 mps 767 mmHg 69%

    Tomorrow, 19 January, Saturday

    Time Temperature Precipitation Wind Pressure Humidity
    00:00 +13°C° 0 mm 1 mps 767 mmHg 71%
    01:00 +13°C° 0 mm 1 mps 767 mmHg 74%
    02:00 +12°C° 0 mm 1 mps 767 mmHg 76%
    03:00 +12°C° 0 mm 1 mps 766 mmHg 78%
    04:00 +10°C° 0 mm 0 mps 766 mmHg 80%
    05:00 +10°C° 0 mm 0 mps 766 mmHg 82%
    06:00 +11°C° 0 mm 0 mps 766 mmHg 79%
    07:00 +12°C° 0 mm 1 mps 766 mmHg 76%
    08:00 +13°C° 0 mm 1 mps 766 mmHg 73%
    09:00 +15°C° 0 mm 1 mps 766 mmHg 66%
    10:00 +16°C° 0 mm 2 mps 766 mmHg 59%
    11:00 +18°C° 0 mm 2 mps 766 mmHg 52%
    12:00 +18°C° 0 mm 3 mps 766 mmHg 50%
    13:00 +19°C° 0 mm 3 mps 765 mmHg 48%
    14:00 +19°C° 0 mm 4 mps 765 mmHg 45%
    15:00 +19°C° 0 mm 4 mps 765 mmHg 48%
    16:00 +18°C° 0 mm 4 mps 765 mmHg 50%
    17:00 +17°C° 0 mm 4 mps 765 mmHg 53%
    18:00 +17°C° 0 mm 3 mps 765 mmHg 56%
    19:00 +16°C° 0 mm 3 mps 766 mmHg 59%
    20:00 +14°C° 0 mm 3 mps 766 mmHg 62%
    21:00 +14°C° 0 mm 3 mps 766 mmHg 64%
    22:00 +14°C° 0 mm 3 mps 766 mmHg 66%
    23:00 +14°C° 0 mm 3 mps 766 mmHg 68%

    Day after tomorrow, 20 January, Sunday

    Time Temperature Precipitation Wind Pressure Humidity
    00:00 +13°C° 0 mm 3 mps 766 mmHg 69%
    01:00 +13°C° 0 mm 3 mps 766 mmHg 70%
    02:00 +13°C° 0 mm 3 mps 766 mmHg 70%
    03:00 +13°C° 0 mm 3 mps 765 mmHg 70%
    04:00 +12°C° 0 mm 3 mps 765 mmHg 70%
    05:00 +12°C° 0 mm 3 mps 765 mmHg 70%
    06:00 +13°C° 0 mm 3 mps 765 mmHg 68%
    07:00 +13°C° 0 mm 3 mps 765 mmHg 65%
    08:00 +14°C° 0 mm 3 mps 766 mmHg 63%
    09:00 +16°C° 0 mm 3 mps 766 mmHg 57%
    10:00 +17°C° 0 mm 3 mps 765 mmHg 51%
    11:00 +19°C° 0 mm 3 mps 765 mmHg 45%
    12:00 +19°C° 0 mm 3 mps 765 mmHg 43%
    13:00 +20°C° 0 mm 3 mps 764 mmHg 41%
    14:00 +20°C° 0 mm 3 mps 764 mmHg 39%
    15:00 +19°C° 0 mm 4 mps 764 mmHg 42%
    16:00 +19°C° 0 mm 4 mps 764 mmHg 46%
    17:00 +18°C° 0 mm 4 mps 764 mmHg 49%
    18:00 +18°C° 0 mm 4 mps 764 mmHg 51%
    19:00 +18°C° 0 mm 4 mps 764 mmHg 53%
    20:00 +18°C° 0 mm 4 mps 764 mmHg 55%
    21:00 +17°C° 0 mm 3 mps 764 mmHg 56%
    22:00 +17°C° 0 mm 3 mps 764 mmHg 58%
    23:00 +17°C° 0 mm 2 mps 764 mmHg 59%

    21 January, Monday

    Time Temperature Precipitation Wind Pressure Humidity
    00:00 +16°C° 0 mm 2 mps 764 mmHg 60%
    01:00 +16°C° 0 mm 2 mps 763 mmHg 61%
    02:00 +15°C° 0 mm 2 mps 763 mmHg 62%
    03:00 +15°C° 0 mm 2 mps 763 mmHg 64%
    04:00 +14°C° 0 mm 1 mps 763 mmHg 66%
    05:00 +12°C° 0 mm 0 mps 763 mmHg 68%
    06:00 +13°C° 0 mm 0 mps 763 mmHg 66%
    07:00 +14°C° 0 mm 0 mps 764 mmHg 63%
    08:00 +14°C° 0 mm 0 mps 764 mmHg 60%
    09:00 +16°C° 0 mm 0 mps 764 mmHg 54%
    10:00 +17°C° 0 mm 0 mps 764 mmHg 48%
    11:00 +19°C° 0 mm 0 mps 764 mmHg 41%
    12:00 +22°C° 0 mm 1 mps 764 mmHg 39%
    13:00 +21°C° 0 mm 2 mps 763 mmHg 37%
    14:00 +22°C° 0 mm 3 mps 763 mmHg 35%
    15:00 +21°C° 0 mm 3 mps 763 mmHg 40%
    16:00 +20°C° 0 mm 4 mps 763 mmHg 45%
    17:00 +19°C° 0 mm 4 mps 763 mmHg 49%
    18:00 +19°C° 0 mm 4 mps 764 mmHg 54%
    19:00 +18°C° 0 mm 4 mps 764 mmHg 58%
    20:00 +17°C° 0 mm 3 mps 764 mmHg 62%
    21:00 +17°C° 0 mm 3 mps 764 mmHg 63%
    22:00 +17°C° 0 mm 3 mps 764 mmHg 64%
    23:00 +16°C° 0 mm 3 mps 764 mmHg 65%

    22 January, Tuesday

    Time Temperature Precipitation Wind Pressure Humidity
    00:00 +16°C° 0 mm 3 mps 764 mmHg 66%
    01:00 +16°C° 0 mm 3 mps 764 mmHg 67%
    02:00 +14°C° 0 mm 3 mps 764 mmHg 68%
    03:00 +14°C° 0 mm 3 mps 763 mmHg 68%
    04:00 +15°C° 0 mm 2 mps 763 mmHg 69%
    05:00 +14°C° 0 mm 2 mps 763 mmHg 69%
    06:00 +15°C° 0 mm 2 mps 763 mmHg 67%
    07:00 +15°C° 0 mm 2 mps 764 mmHg 65%
    08:00 +16°C° 0 mm 2 mps 764 mmHg 63%
    09:00 +17°C° 0 mm 2 mps 764 mmHg 56%
    10:00 +19°C° 0 mm 2 mps 764 mmHg 49%
    11:00 +20°C° 0 mm 2 mps 764 mmHg 42%
    12:00 +21°C° 0 mm 3 mps 763 mmHg 41%
    13:00 +21°C° 0 mm 3 mps 763 mmHg 40%
    14:00 +22°C° 0 mm 4 mps 762 mmHg 38%
    15:00 +21°C° 0 mm 4 mps 762 mmHg 44%
    16:00 +20°C° 0 mm 4 mps 762 mmHg 49%
    17:00 +19°C° 0 mm 4 mps 762 mmHg 55%
    18:00 +18°C° 0 mm 4 mps 762 mmHg 59%
    19:00 +18°C° 0 mm 3 mps 762 mmHg 63%
    20:00 +17°C° 0 mm 3 mps 763 mmHg 68%
    21:00 +17°C° 0 mm 2 mps 763 mmHg 69%
    22:00 +16°C° 0 mm 2 mps 763 mmHg 70%
    23:00 +16°C° 0 mm 2 mps 763 mmHg 72%

    23 January, Wednesday

    Time Temperature Precipitation Wind Pressure Humidity
    00:00 +16°C° 0 mm 2 mps 763 mmHg 73%
    01:00 +15°C° 0 mm 2 mps 762 mmHg 74%
    02:00 +15°C° 0 mm 2 mps 762 mmHg 76%
    03:00 +15°C° 0 mm 2 mps 762 mmHg 77%
    04:00 +15°C° 0 mm 2 mps 762 mmHg 78%
    05:00 +14°C° 0 mm 2 mps 762 mmHg 79%
    06:00 +15°C° 0 mm 2 mps 762 mmHg 77%
    07:00 +15°C° 0 mm 2 mps 762 mmHg 74%
    08:00 +16°C° 0 mm 2 mps 762 mmHg 71%
    09:00 +17°C° 0 mm 2 mps 762 mmHg 64%
    10:00 +19°C° 0 mm 3 mps 762 mmHg 56%
    11:00 +20°C° 0 mm 3 mps 762 mmHg 49%
    12:00 +21°C° 0 mm 4 mps 761 mmHg 47%
    13:00 +21°C° 0 mm 4 mps 760 mmHg 45%
    14:00 +21°C° 0 mm 5 mps 760 mmHg 42%
    15:00 +21°C° 0 mm 5 mps 759 mmHg 46%
    16:00 +20°C° 0 mm 6 mps 759 mmHg 50%
    17:00 +19°C° 0 mm 6 mps 759 mmHg 54%
    18:00 +19°C° 0 mm 6 mps 759 mmHg 57%
    19:00 +17°C° 0 mm 6 mps 759 mmHg 60%
    20:00 +16°C° 0 mm 6 mps 758 mmHg 63%
    21:00 +16°C° 0 mm 6 mps 758 mmHg 61%
    22:00 +16°C° 0 mm 6 mps 758 mmHg 59%
    23:00 +16°C° 0 mm 6 mps 757 mmHg 58%
    Show more